www.pogodaiklimat.ru

Погода и климат >> Архив погоды >> Россия >> Свердловская область >> Ивдель


ПОГОДА в Ивдель

  • Прогноз погоды в Ивдель
  • Монитор погоды в Ивдель
  • Климат города

АРХИВ ПОГОДЫ в Ивдель

Время (UTC), дата Ветер
(напр.,м/с)
 
Видим.   Явления Облачность Т
(С)
Тd
(С)
f
(%)
Тe
(С)
Тes
(С)
Комфортность P
(гПа)
Po
(гПа)
Тmin
(С)
Tmax
(С)
R
(мм)
R24
(мм)
S
(см)
09 18.04 З 3 50 км в посл. час ливневой снег 9/9 600 м
[Cb cap]
+4.1 -3.5 58 +1 +2 1009.1 997.4
12 18.04 З 3 50 км в посл. час ливневой снег 9/9 600 м
[Cb cap]
+3.3 -5.7 52 0 0 1011.2 999.5
15 18.04 З 3 50 км в посл. час ливневой снег 9/9 600 м
[Cb cap]
+3.3 -5.7 52 0 0 1011.2 999.5
18 18.04 З 2 10 км 9/9 600 м
[Cb cap]
-1.0 -5.2 73 -5 -5 1013.8 1001.9
21 18.04 З 4
{10}
10 км {ливн. осадки} 9/9 600 м
[Cb cap]
-1.4 -9.0 56 -7 -7 1015.3 1003.3
00 19.04 З 3 20 км {ливн. осадки} 5/5 1000 м
[Sc]
-3.6 -10.2 60 -8 -8 1017.1 1005.0
03 19.04 З 4
{10}
50 км {ливн. осадки} 5/4 600 м
[Cb cap Ci fib]
-2.9 -10.8 54 -8 -7 1018.5 1006.4 -3.9 0.0 8
06 19.04 З 5
{11}
45 км слабый ливневой снег 9/9 600 м
[Cb cap]
-2.3 -12.8 44 -8 -8 1020.3 1008.3
09 19.04 СЗ 4 50 км {ливн. осадки} 9/9 600 м
[Cb cap]
-0.8 -12.0 42 -6 -5 1022.0 1010.0
12 19.04 СЗ 4
{10}
50 км 8/8 600 м
[Cb cap]
+0.1 -11.1 43 -4 -4 1023.0 1011.1
15 19.04 З 3 50 км 5/4 600 м
[Cb cap Ci fib]
-1.0 -10.5 48 -5 -5 1024.3 1012.3 +0.3 0.0
18 19.04 СЗ 1 10 км ясно -3.5 -9.7 62 -5 -5 1025.5 1013.4
21 19.04 З 2 10 км ясно -6.8 -10.1 77 -11 -11 1026.3 1014.0
00 20.04 СЗ 1 50 км ясно -9.8 -11.2 89 -12 -12 1026.7 1014.2
03 20.04 штиль 0 50 км 1/0
[Ci fib]
-2.8 -9.8 59 -3 -0 1026.7 1014.5 -10.4 8
06 20.04 СЗ 2 50 км 5/1 600 м
[Cu hum Ci fib]
-0.3 -11.0 44 -3 +4 1025.5 1013.5
09 20.04 штиль 0 50 км 9/0
[Ac trans Ci fib]
+2.5 -12.3 33 +2 +10 опасность
простуды
1023.9 1012.0
12 20.04 В 1 50 км 9/0
[Ac trans]
+2.8 -12.0 33 +2 +4 1022.3 1010.5
15 20.04 ЮВ 2 50 км 10/10 600 м
[Cb cap]
+0.9 -7.6 53 -2 -2 1021.2 1009.3 +2.8
18 20.04 СВ 3 10 км в посл. час ливневой снег 10/10 600 м
[Cb cap]
-0.4 -5.9 66 -5 -5 1019.5 1007.6
21 20.04 СВ 2 10 км 10/10 600 м
[Cb cap]
-0.2 -7.5 58 -3 -3 1015.1 1003.2
00 21.04 СВ 3 6000 м слабый ливневой снег 10/10 600 м
[Cb cap]
-2.3 -3.8 89 -7 -7 1008.8 996.9
03 21.04 С 2 50 км в посл. час ливневой снег 10/10 720 м
[Cb cap]
-1.9 -3.5 89 -6 -6 1003.1 991.3 -2.3 2 8
06 21.04 С 1 16 км слабый ливневой снег 10/10 600 м
[Cb cap]
-0.4 -2.1 88 -2 -2 999.6 987.9
09 21.04 ЮЗ 4 16 км слабый ливневой снег 9/9 600 м
[Cb cap]
+1.5 -4.8 63 -3 -3 999.9 988.3
12 21.04 ЮЗ 5-12
{12}
50 км в посл. час ливневой снег 10/10 600 м
[Cb cap]
+2.3 -8.8 44 -2 -2 1000.5 988.9
15 21.04 ЮЗ 5-10
{12}
50 км в посл. час ливневой снег 8/6 600 м
[Cb cap Ci fib]
+1.2 -7.3 53 -4 -4 1000.7 989.0 +2.6
18 21.04 ЮЗ 3
{10}
10 км {ливн. осадки} 8/8 600 м
[Cb cap]
-0.1 -6.5 62 -4 -4 1001.0 989.2
21 21.04 З 3 10 км 3/1 600 м
[Cb cap Ac trans]
-0.9 -8.2 58 -5 -5 1002.1 990.3
00 22.04 З 4
{10}
50 км 8/4 600 м
[Cb cap Ac trans]
-1.9 -9.4 56 -7 -7 1004.3 992.5
03 22.04 З 3 50 км 8/0
[Ac trans Ci fib]
+0.5 -7.3 56 -3 -2 1004.9 993.2 -2.1 6
06 22.04 ЮЗ 4 50 км 3/1 600 м
[Cu hum Ci fib]
+5.4 -10.0 32 +2 +7 1005.3 993.7
09 22.04 ЮЗ 5
{13}
50 км 9/8 600 м
[Cu Sc Ac trans Ci fib]
+5.9 -10.5 30 +2 +3 1005.9 994.4
12 22.04 ЮЗ 3
{11}
50 км 9/9 1000 м
[Sc]
+7.6 -11.5 24 +6 +6 1005.5 994.0
15 22.04 З 2
{11}
50 км 4/0
[Ac lent Ci fib]
+6.7 -12.1 25 +5 +6 1005.9 994.4 +8.2
18 22.04 Ю 1 10 км 8/3 1000 м
[Sc Ci fib]
+1.8 -8.6 46 +1 +1 1007.0 995.3
21 22.04 СВ 1 10 км 3/0
[Ci fib]
-2.9 -7.2 72 -5 -5 1007.5 995.6
00 23.04 штиль 0 50 км 9/0
[Ac trans Ci fib]
-3.3 -5.7 83 -4 -4 1007.4 995.4
03 23.04 штиль 0 50 км 10/0
[Ac As]
+0.1 -5.9 64 -1 0 1006.9 995.1 -3.7 5
06 23.04 ЮВ 2 7000 м слабый ливневой дождь 10/10 600 м
[Cb cap]
+2.6 -0.4 81 -0 -0 1005.2 993.6
09 23.04 ЮВ 1 50 км в посл. час ливневой дождь 10/10 720 м
[Cb cap]
+4.1 -0.3 73 +3 +3 1004.1 992.5
12 23.04 Ю 1 17 км слабый ливневой дождь 10/10 700 м
[Cb cap]
+4.1 +2.3 88 +3 +3 1003.9 992.3
15 23.04 штиль 0 6000 м слабый ливневой дождь 10/10 930 м
[Cb cap]
+3.7 +2.7 93 +3 +3 1003.0 991.4 +4.7 2
18 23.04 ЮЗ 1 10 км {ливн. осадки, туман} 10/10 960 м
[Cb cap]
+3.0 +2.1 94 +1 +1 1003.9 992.3
21 23.04 ЮЗ 2 10 км {ливн. осадки} 8/8 1000 м
[Sc]
+1.1 -0.1 92 -2 -2 1005.2 993.5
00 24.04 ЮЗ 1 50 км {ливн. осадки} 3/3 1000 м
[Sc]
-0.9 -1.9 93 -3 -3 1006.7 994.9
03 24.04 Ю 1 50 км 3/3 1000 м
[Sc]
+2.5 +0.5 87 +1 +3 1008.4 996.7 -0.9 0.3 2
06 24.04 ЮВ 2 50 км 8/8 600 м
[Cu Sc]
+7.6 -0.6 56 +6 +8 1009.3 997.8
09 24.04 З 2 50 км 8/8 600 м
[Cb cap]
+9.3 -5.8 34 +8 +10 1010.1 998.7
12 24.04 Ю 3 50 км 9/8 600 м
[Cb cap Ci fib]
+10.7 -6.4 29 +9 +10 1009.8 998.5
15 24.04 Ю 1 50 км 8/5 600 м
[Cb cap Ac trans Ci fib]
+9.5 -6.4 32 +10 +10 1010.1 998.7 +11.1
18 24.04 СЗ 1 10 км 9/8 600 м
[Cb cap Ac trans]
+1.7 -2.8 72 0 0 1010.0 998.3
21 24.04 штиль 0 10 км 9/9 600 м
[Cb cap]
+1.1 -2.3 78 0 0 1008.8 997.1
00 25.04 СВ 2 25 км слабый ливневой дождь 10/10 800 м
[Cb cap]
+3.6 +2.2 91 +1 +1 1005.7 994.1
03 25.04 С 1 4100 м ливневой дождь 10/10 600 м
[Cb cap]
+3.9 +2.9 93 +2 +2 1001.4 989.8 +0.9 3 0

 

Местоположение метеостанции Ивдель (Свердловская область, Россия): широта 60.68 долгота 60.45 высота над уровнем моря 94 м.

В архиве по умолчанию представлена погода в Ивдель за последнюю неделю. Архивные данные за месяц целиком и за предыдущие месяцы, начиная с января 2011 года, Вы можете получить, выбрав интересующий диапазон дат из раскрывающегося списка и нажав кнопку "Ввод!".

Внимание! Время в таблицах - всемирное. Для получения местного времени необходимо прибавить поправку, которая в Ивдель равна 5 ч.

Смотрите также архив погоды в соседних городах и на ближайших метеорологических станциях:

Погода в Североуральске (Свердловская область, Россия) (56 км)
Погода в Атымье (Свердловская область, Россия) (103 км)
Погода в Карпинске (Свердловская область, Россия) (106 км)
Погода в Серове (Свердловская область, Россия) (120 км)
Погода в Кытлыме (Свердловская область, Россия) (148 км)
Погода в Гари (Свердловская область, Россия) (174 км)
Погода в Няксимволе (Ханты-Мансийский АО, Россия) (196 км)
Погода в Верхотурье (Свердловская область, Россия) (202 км)
Погода в Ныробе (Пермский край, Россия) (203 км)
Погода в Шаиме (Ханты-Мансийский АО, Россия) (210 км)

Пояснения к столбцам:

Ветер - указаны скорость ветра в м/с - средняя за 10 мин, порывы в срок и между сроками (в фигурных скобках) и направление, откуда дует ветер: С - северный, СВ - северо-восточный, В - восточный, ЮВ - юго-восточный, Ю - южный, ЮЗ - юго-западный, З - западный, СЗ - северо-западный.
Видимость - горизонтальная дальность видимости в метрах или километрах. При видимости от 1 до 10 км при отсутствии осадков обычно наблюдается дымка, при ухудшении видимости до 1 км и менее - туман. В сухую погоду видимость может ухудшаться дымом, пылью или мглою.
Явления - указаны атмосферные явления, наблюдавшиеся в срок или в последний час перед сроком; фигурными скобками обозначены явления, наблюдавшиеся между сроками (за 1-3 часа до срока); квадратными скобками обозначены град или гололедные отложения с указанием их диаметра в мм.
Облачность - указаны через наклонную черту общая и нижняя облачность в баллах и высота нижней границы облаков в метрах; квадратными скобками обозначены формы облаков: Ci - перистые, Cs - перисто-слоистые, Cc - перисто-кучевые, Ac - высококучевые, As - высокослоистые, Sc - слоисто-кучевые, Ns - слоисто-дождевые, Cu - кучевые, Cb - кучево-дождевые. Подробнее классификацию облаков см. в Атласе облаков (PDF).
T - Температура воздуха - температура, измеренная на высоте 2 м над землей.
Td - Температура точки росы - температура, при понижении до которой содержащийся в воздухе водяной пар достигнет насыщения.
f - Относительная влажность воздуха - влажноcть воздуха, измеренная на высоте 2 м над землей.
Te - Эффективная температура - температура, которую ощущает одетый по сезону человек в тени. Характеристика душности погоды. При расчете учитывается влияние влажности воздуха и скорости ветра на теплоощущения человека.
Tes - Эффективная температура на солнце - температура, которую ощущает человек, с поправкой на солнечный нагрев. Характеристика знойности погоды. Зависит от высоты солнца над горизонтом, облачности и скорости ветра. Ночью, в пасмурную погоду, а также при ветре 12 м/с и более поправка равна нулю.
P - Атмосферное давление - приведенное к уровню моря атмосферное давление.
Po - Атмосферное давление - измеренное на уровне метеостанции атмосферное давление.
Tmin - Минимальная температура - минимум температуры воздуха на высоте 2 м над землей.
Tmax - Максимальная температура - максимум температуры воздуха на высоте 2 м над землей.
R - Количество осадков - Количество выпавших осадков за период времени, мм. При наведении курсора мыши на число - период времени, за который выпало указанное количество осадков.
R24 - Количество осадков - Количество выпавших осадков за 24 часа, мм.
S - Снежный покров - Высота снежного покрова, см. При наведении курсора мыши на число - состояние снежного покрова и степень покрытия местности в баллах.